Temperature
8 9 9 9 9 9 9 9 9 9 9 9 9 9 9 9 9 9 9 8 8 8 8 8 8 8 8 9 9 9 9 9 10 10 10 10 10 10 10 10 10 10 10
8 8 8 8 8 8 8 8 8 8 8 8 8 8 8 8 8 8 8 8 8 8 8 8 8 7 8 8 8 8 8 8 9 9 9 9 9 9 9 9 9 9 10
7 7 7 7 7 7 7 7 7 7 7 7 7 7 7 7 7 7 7 7 7 7 7 7 7 7 7 7 7 7 7 8 8 8 8 8 8 8 8 9 9 9 9
6 6 6 6 7 6 6 6 6 7 7 6 6 6 6 6 6 6 6 6 6 6 6 6 6 6 6 6 6 6 6 7 7 7 7 7 7 7 7 8 8 8 8
6 6 6 6 6 6 6 6 6 6 6 6 6 6 5 5 5 5 5 5 5 5 6 6 6 6 6 6 6 6 6 6 6 6 6 6 6 6 7 7 7 7 7
5 5 5 5 5 5 5 5 5 5 5 5 5 5 4 4 4 4 4 4 4 4 5 5 5 5 5 5 5 5 5 5 5 5 5 5 6 6 6 6 6 6 6
5 5 4 4 4 4 4 4 4 4 4 4 4 4 4 3 3 3 3 3 4 4 4 4 4 4 4 4 5 4 4 4 4 5 5 5 5 5 5 5 5 6 6
4 4 4 4 4 4 4 4 4 4 3 3 3 3 2 2 2 2 2 3 3 3 3 3 3 3 4 4 4 4 4 4 4 4 4 4 4 4 4 5 5 5 5
3 3 3 3 3 3 3 3 3 3 3 3 3 2 2 1 1 1 2 2 2 2 2 2 2 3 3 3 3 3 3 3 3 3 3 3 3 4 4 4 4 4 4
3 3 3 3 3 3 3 3 2 2 2 2 2 2 2 1 1 0 1 1 1 1 2 2 2 2 2 2 2 3 3 3 3 3 3 3 3 3 3 3 3 4 4
2 2 2 2 2 2 2 2 2 2 2 2 2 1 1 1 1 0 -0 0 1 1 1 1 1 1 1 1 1 2 2 2 2 2 2 2 2 2 3 3 3 3 3
2 2 2 2 2 1 1 1 1 1 1 1 1 1 1 1 0 0 -1 -1 -1 -0 0 0 0 0 0 1 1 1 1 1 1 1 1 1 2 2 2 2 2 2 2
1 1 1 1 1 1 1 1 1 1 0 0 0 0 0 -0 -0 -0 -1 -1 -2 -1 -1 -0 -0 -0 -0 -0 -0 -0 0 0 0 0 0 1 1 1 1 1 1 2 2
1 1 1 1 1 1 1 0 0 0 -0 -0 -0 -0 -0 -1 -1 -1 -1 -2 -2 -2 -2 -1 -1 -1 -1 -1 -1 -1 -1 -0 -0 -0 -0 -0 0 0 0 1 1 1 1
0 0 0 0 0 0 0 -0 -0 -1 -1 -1 -1 -1 -1 -1 -1 -2 -2 -2 -2 -3 -3 -2 -2 -1 -1 -1 -1 -1 -1 -1 -1 -1 -1 -1 -0 -0 -0 -0 0 0 0
-0 -0 -0 -0 -0 -0 -1 -1 -1 -1 -1 -1 -1 -1 -1 -2 -2 -2 -2 -2 -3 -3 -3 -3 -3 -2 -2 -2 -2 -2 -2 -2 -2 -1 -1 -1 -1 -1 -1 -1 -1 -1 -1
-1 -1 -1 -1 -1 -1 -1 -1 -1 -2 -2 -2 -2 -2 -2 -2 -2 -2 -3 -3 -3 -3 -4 -3 -3 -3 -3 -3 -3 -3 -3 -2 -2 -2 -2 -2 -2 -2 -2 -1 -1 -1 -1
-2 -2 -2 -2 -2 -2 -2 -2 -2 -2 -2 -2 -2 -2 -3 -3 -3 -3 -3 -3 -3 -4 -4 -4 -4 -4 -4 -3 -3 -3 -3 -3 -3 -3 -3 -3 -2 -2 -2 -2 -2 -2 -2
-2 -2 -2 -2 -2 -2 -2 -2 -3 -3 -3 -3 -3 -3 -3 -3 -3 -3 -4 -4 -4 -4 -4 -5 -4 -4 -4 -4 -4 -4 -4 -4 -4 -3 -3 -3 -3 -3 -3 -3 -3 -3 -3
-3 -3 -3 -3 -3 -3 -3 -3 -3 -3 -3 -4 -4 -4 -4 -4 -4 -4 -4 -4 -5 -5 -5 -5 -5 -5 -5 -5 -5 -5 -4 -4 -4 -4 -4 -4 -4 -4 -4 -3 -3 -3 -3
-4 -4 -4 -4 -4 -4 -4 -4 -4 -4 -4 -4 -4 -4 -4 -4 -5 -5 -5 -5 -5 -5 -5 -5 -6 -6 -5 -5 -5 -5 -5 -5 -5 -5 -5 -4 -4 -4 -4 -4 -4 -4 -4
-4 -4 -4 -4 -4 -4 -4 -5 -5 -5 -5 -5 -5 -5 -5 -5 -5 -5 -5 -5 -5 -5 -6 -6 -6 -6 -6 -6 -6 -6 -6 -6 -6 -6 -5 -5 -5 -5 -5 -5 -5 -5 -5
-5 -5 -5 -5 -5 -5 -5 -5 -5 -5 -5 -5 -6 -5 -5 -6 -6 -6 -6 -6 -6 -6 -6 -6 -6 -6 -6 -6 -6 -6 -6 -6 -6 -6 -6 -6 -6 -5 -5 -5 -5 -5 -5
-5 -5 -5 -6 -6 -6 -6 -6 -6 -6 -6 -6 -6 -6 -6 -6 -6 -6 -6 -6 -6 -6 -6 -6 -7 -6 -6 -7 -7 -7 -7 -7 -7 -7 -7 -7 -6 -6 -6 -6 -6 -6 -6
-6 -6 -6 -6 -6 -6 -6 -6 -6 -6 -6 -6 -7 -7 -7 -6 -6 -7 -7 -7 -7 -7 -7 -7 -7 -7 -7 -7 -7 -7 -7 -7 -7 -7 -7 -7 -7 -7 -7 -6 -6 -6 -6
-7 -7 -7 -7 -7 -6 -6 -7 -7 -7 -7 -7 -7 -7 -7 -7 -7 -7 -7 -7 -7 -7 -7 -7 -7 -7 -7 -7 -7 -7 -7 -8 -8 -8 -8 -8 -8 -8 -8 -7 -7 -7 -7
Wind_Speed
6 6 7 8 8 8 8 7 8 8 8 9 9 9 9 10 10 11 10 11 11 11 11 10 9 9 9 9 9 9 8 8 8 8 7 7 7 7 7 7 7 7 6
7 6 6 6 7 7 7 7 7 7 7 7 7 8 8 9 10 10 10 11 11 10 10 10 9 9 8 8 8 7 8 8 7 7 7 6 6 5 5 5 5 6 6
9 8 6 5 6 7 8 8 8 7 6 6 5 6 7 8 8 8 9 9 10 10 10 9 9 9 9 8 8 7 7 7 7 6 6 6 5 5 5 5 4 4 4
10 8 6 5 6 7 6 5 4 4 4 3 3 4 5 6 7 7 8 9 9 9 10 9 9 9 9 8 8 8 6 5 6 5 5 5 5 4 4 4 4 4 4
10 8 6 5 6 6 5 4 3 3 3 3 3 3 4 4 4 6 7 8 8 9 9 9 9 9 9 8 8 7 6 5 4 4 4 4 4 4 4 4 4 4 4
9 8 6 6 6 4 3 3 3 3 2 2 3 3 3 3 4 5 6 7 8 9 10 9 9 8 8 8 8 7 6 6 4 4 4 3 3 4 4 3 4 4 4
8 8 5 5 4 3 3 3 2 3 2 2 3 3 3 3 3 4 5 5 7 8 9 9 9 8 8 8 8 8 6 6 5 4 4 4 4 4 4 4 4 5 5
7 7 6 4 4 3 3 3 3 2 1 1 2 2 2 2 3 3 3 3 4 6 7 8 8 8 8 8 8 8 7 6 6 5 5 5 5 6 6 6 6 6 6
6 6 6 5 4 3 3 3 3 3 2 0 1 2 2 1 1 2 2 2 3 3 5 5 6 7 7 7 8 8 8 7 7 7 6 6 6 6 7 7 7 7 7
6 6 7 6 5 3 4 3 2 2 3 2 0 1 1 2 2 1 2 2 2 2 2 4 4 5 6 7 7 8 8 8 7 7 7 7 7 7 7 8 8 8 9
5 6 6 6 5 4 4 3 2 2 2 2 2 1 1 1 1 2 2 3 3 2 2 2 3 4 5 5 6 7 8 8 8 8 8 8 8 8 8 9 9 9 9
3 4 5 5 5 5 5 4 4 3 3 2 2 1 2 2 1 1 2 2 3 3 3 2 2 3 4 5 6 8 8 9 9 9 9 9 8 9 9 10 10 10 10
3 5 4 4 5 5 5 4 3 4 4 3 3 2 2 2 2 2 2 2 3 3 2 2 2 3 4 5 6 8 8 9 10 10 10 10 9 10 10 10 11 11 11
5 4 4 4 4 4 5 4 3 3 3 3 3 3 2 2 2 2 2 2 2 3 3 4 2 3 4 6 7 9 9 10 10 10 11 10 10 10 10 11 11 12 12
3 4 4 3 3 3 4 4 3 3 3 3 3 3 3 2 2 2 2 3 3 4 5 3 2 3 5 6 8 8 9 10 10 11 11 11 11 11 11 11 11 12 12
4 4 4 4 3 3 3 3 3 2 3 3 2 3 3 2 2 2 2 2 3 4 5 3 3 4 6 8 10 9 9 10 10 11 11 12 12 12 12 12 12 12 13
4 5 5 4 4 4 4 4 4 4 4 3 3 3 3 3 3 2 2 3 3 3 5 5 3 3 4 5 8 9 8 8 9 11 12 12 12 12 12 12 12 12 12
4 5 4 5 5 4 4 4 4 4 5 5 4 4 5 4 4 3 3 4 3 3 4 6 5 4 5 5 5 6 7 7 8 11 12 12 11 11 12 12 12 12 12
3 4 4 5 5 4 4 4 5 5 5 5 5 5 5 5 5 4 4 4 4 4 3 5 6 4 4 4 4 4 5 5 8 9 10 10 11 11 12 12 13 12 12
4 4 4 4 4 4 4 5 5 5 5 5 5 6 6 6 6 6 5 5 4 4 4 5 5 5 4 4 3 3 4 3 5 8 9 9 10 11 12 12 12 12 12
3 4 3 3 4 4 5 5 5 5 5 5 5 6 6 7 9 7 6 5 5 5 4 5 5 5 5 4 3 3 4 4 5 5 4 6 7 7 9 11 12 12 13
3 3 4 4 4 4 7 8 7 5 5 5 5 5 6 7 9 10 10 10 9 7 6 6 6 6 6 5 4 4 4 4 5 3 3 5 5 5 6 8 11 13 14
3 3 4 4 5 6 8 8 9 4 5 5 5 5 5 5 7 5 8 9 9 11 10 7 7 7 6 5 5 5 5 5 6 4 3 6 4 5 7 9 13 14 14
3 3 4 4 4 6 8 8 8 4 4 5 5 6 6 5 6 6 5 5 5 6 8 7 7 7 7 5 5 5 5 5 5 5 4 5 4 5 7 8 11 12 13
3 3 3 3 4 5 7 7 6 3 3 4 5 5 5 5 9 9 5 5 5 6 8 10 10 9 10 10 7 3 3 3 5 4 3 3 4 5 5 6 8 10 11
3 3 3 3 4 4 7 7 6 3 4 4 4 5 7 7 9 9 5 5 6 5 4 4 5 7 6 7 8 5 4 4 4 4 2 2 3 3 4 4 5 6 8
Wind_Direction
96 87 83 79 73 72 70 68 68 68 67 66 68 70 65 61 56 51 48 51 55 57 58 58 58 56 56 56 61 63 64 63 64 64 65 65 64 64 60 54 49 45 45
107 96 84 78 74 76 75 74 74 71 66 67 68 69 68 65 60 54 49 47 50 52 55 55 53 52 52 54 56 59 60 59 60 61 60 61 61 61 59 55 45 37 34
113 104 92 79 77 82 81 75 71 70 66 63 63 65 68 68 65 58 51 48 46 46 50 52 51 49 48 48 49 51 53 54 52 54 53 52 51 53 51 45 39 31 21
118 108 96 84 89 87 80 77 68 71 62 58 56 53 61 67 66 61 55 50 49 44 43 47 50 46 43 42 42 41 42 45 42 43 44 43 38 38 36 30 23 14 4
124 115 104 98 100 90 77 80 69 84 82 66 65 57 55 64 66 62 59 54 52 49 44 42 46 45 41 37 36 34 32 27 25 27 24 24 21 20 18 13 8 2 358
127 120 110 106 106 96 81 77 89 75 93 82 76 53 35 48 67 63 58 56 53 49 47 44 40 39 37 31 28 25 22 17 9 1 356 350 346 346 349 349 343 337 334
135 128 121 114 107 109 111 104 111 98 74 82 80 51 23 27 53 58 59 61 49 45 43 40 35 33 26 23 19 15 7 5 359 351 344 332 320 315 317 316 319 318 317
145 144 133 128 121 119 120 117 120 120 110 79 98 97 46 8 12 22 42 60 48 42 36 31 29 26 22 19 10 6 358 354 350 340 331 326 322 310 303 302 301 304 307
152 150 148 144 139 140 154 157 151 135 154 122 83 119 140 196 309 339 8 32 33 35 22 19 16 10 9 10 2 357 352 349 340 329 328 320 313 311 306 296 295 295 298
156 159 160 158 154 156 164 176 161 159 155 165 112 58 120 149 163 299 322 343 350 357 352 354 351 353 357 356 352 351 346 343 333 325 321 320 312 306 300 299 299 295 293
168 168 171 169 167 170 174 176 174 166 165 174 173 146 82 64 139 184 262 301 320 306 314 319 320 325 334 339 346 341 335 332 327 322 318 314 312 309 301 296 296 296 296
186 180 179 179 181 181 182 185 187 180 180 177 177 178 176 182 195 188 230 269 285 292 296 284 278 303 319 326 328 331 328 327 322 316 313 312 313 311 309 300 294 294 295
197 198 195 190 189 189 186 182 186 193 187 184 190 201 203 212 201 198 209 253 278 289 292 288 265 290 306 318 322 321 321 320 316 315 312 308 309 311 310 307 300 295 295
199 197 191 190 191 188 183 177 190 201 191 191 202 202 212 217 203 201 202 213 281 282 272 269 285 276 296 310 313 315 318 316 312 310 308 306 306 307 306 306 306 300 295
188 178 184 187 191 188 182 176 190 197 189 198 205 208 218 221 215 213 204 198 210 262 273 257 266 283 303 302 303 309 307 309 308 305 304 304 303 303 302 302 301 302 301
184 178 193 198 194 191 187 179 187 196 188 208 211 207 220 222 222 217 211 221 219 232 261 259 260 277 288 295 297 300 299 301 304 300 299 299 299 299 300 298 296 297 298
188 189 196 195 194 197 196 188 196 196 200 212 220 217 227 226 226 229 226 230 232 226 255 278 275 276 278 282 294 294 292 293 296 296 295 295 295 296 298 297 296 295 296
196 197 198 197 201 202 203 196 204 208 207 215 221 224 235 239 236 233 230 232 237 233 241 267 280 276 270 269 275 282 290 291 291 291 292 292 294 295 296 297 297 294 293
191 197 199 199 203 204 206 209 206 212 217 221 221 224 231 229 238 236 231 236 241 248 238 249 271 274 272 272 276 286 287 288 293 293 291 293 296 295 296 297 297 296 295
185 194 204 206 209 214 217 219 216 217 219 228 232 230 231 229 233 232 237 234 235 242 239 245 263 273 275 271 260 276 293 291 294 298 291 294 298 300 300 300 299 299 298
198 203 202 210 219 221 222 218 216 218 216 224 232 236 238 239 240 238 240 233 227 232 238 244 255 268 271 269 263 267 279 292 291 283 286 291 296 296 297 298 298 296 295
200 200 208 211 217 231 237 233 227 218 216 220 229 237 243 248 250 253 253 251 243 235 234 240 253 252 260 257 259 261 267 281 287 280 279 286 287 283 288 287 290 293 293
203 211 216 215 221 232 240 238 236 217 207 216 223 231 243 250 257 249 255 258 258 257 251 247 246 249 252 247 246 255 259 266 270 277 288 287 279 277 282 284 289 289 293
210 217 226 229 234 243 244 242 240 215 213 222 228 228 234 241 248 248 248 250 254 259 257 252 246 246 246 242 237 243 253 269 274 274 270 275 281 279 286 285 286 288 294
221 222 228 228 235 251 252 244 237 207 221 229 235 233 233 235 249 254 249 242 257 265 267 261 256 251 255 256 249 242 249 261 275 278 256 256 278 294 290 281 281 289 294
227 238 249 240 240 247 252 242 236 220 227 233 238 240 244 246 252 253 236 227 245 259 261 265 266 266 261 257 260 245 238 247 267 276 253 257 278 302 295 282 279 290 294
Height
1527 1528 1528 1529 1530 1530 1531 1532 1533 1534 1534 1535 1535 1536 1536 1536 1537 1537 1538 1538 1539 1539 1540 1540 1540 1541 1541 1541 1542 1542 1542 1542 1543 1543 1543 1544 1544 1544 1545 1546 1546 1547 1547
1525 1526 1527 1528 1528 1529 1530 1531 1532 1532 1533 1534 1534 1535 1535 1535 1536 1536 1536 1537 1537 1538 1538 1538 1539 1539 1540 1540 1541 1541 1541 1541 1541 1542 1542 1542 1542 1543 1543 1544 1544 1545 1545
1524 1524 1526 1526 1527 1528 1528 1529 1530 1531 1532 1532 1533 1533 1534 1534 1534 1535 1535 1535 1535 1536 1536 1537 1537 1537 1538 1538 1539 1539 1539 1539 1540 1540 1540 1541 1541 1541 1541 1542 1542 1543 1543
1522 1523 1524 1525 1526 1526 1527 1527 1528 1529 1530 1530 1531 1531 1532 1532 1533 1533 1533 1534 1534 1534 1534 1535 1535 1535 1536 1536 1537 1537 1537 1538 1538 1538 1538 1539 1539 1539 1539 1540 1540 1541 1541
1520 1521 1522 1523 1524 1525 1525 1526 1527 1527 1528 1528 1529 1530 1530 1531 1531 1531 1532 1532 1532 1532 1532 1533 1533 1533 1534 1534 1534 1534 1535 1535 1536 1536 1536 1537 1537 1537 1537 1538 1538 1539 1539
1518 1519 1520 1521 1522 1523 1523 1524 1525 1525 1526 1526 1527 1527 1528 1529 1529 1529 1530 1530 1530 1530 1530 1530 1531 1531 1531 1531 1532 1532 1532 1533 1533 1533 1534 1534 1535 1535 1535 1535 1536 1536 1536
1515 1516 1518 1519 1520 1520 1521 1522 1523 1523 1524 1524 1525 1525 1526 1527 1527 1527 1528 1528 1528 1528 1528 1528 1528 1529 1529 1529 1529 1529 1529 1530 1530 1530 1531 1531 1532 1532 1532 1533 1533 1533 1533
1513 1514 1515 1516 1517 1518 1519 1520 1521 1521 1521 1522 1522 1522 1523 1525 1524 1525 1525 1526 1526 1526 1526 1526 1526 1526 1526 1526 1526 1526 1526 1526 1527 1527 1528 1528 1528 1529 1529 1529 1530 1530 1530
1509 1511 1513 1514 1515 1516 1516 1517 1518 1519 1519 1520 1521 1521 1522 1521 1522 1522 1522 1523 1523 1523 1523 1523 1523 1523 1523 1523 1523 1523 1523 1523 1523 1524 1524 1525 1525 1525 1525 1526 1526 1526 1526
1506 1508 1509 1510 1511 1513 1514 1515 1516 1516 1517 1517 1518 1519 1520 1519 1520 1519 1519 1520 1520 1520 1521 1521 1520 1520 1520 1520 1520 1519 1520 1520 1520 1520 1521 1521 1521 1521 1521 1521 1522 1522 1522
1503 1505 1506 1507 1508 1509 1510 1512 1512 1513 1514 1515 1515 1515 1516 1517 1517 1517 1516 1516 1517 1518 1518 1517 1517 1517 1517 1516 1516 1516 1516 1516 1516 1516 1516 1516 1517 1517 1517 1517 1517 1517 1517
1499 1501 1502 1503 1504 1506 1507 1508 1509 1510 1511 1512 1512 1513 1513 1514 1514 1514 1513 1513 1513 1514 1514 1514 1514 1513 1513 1513 1512 1512 1512 1512 1512 1512 1512 1512 1512 1512 1512 1512 1512 1512 1512
1495 1496 1498 1499 1500 1502 1503 1504 1505 1506 1507 1508 1508 1509 1510 1511 1511 1511 1511 1510 1509 1509 1510 1510 1510 1510 1510 1509 1508 1508 1507 1507 1507 1507 1507 1507 1507 1507 1507 1507 1507 1507 1507
1491 1492 1493 1495 1496 1498 1499 1500 1501 1502 1503 1504 1505 1506 1507 1507 1508 1508 1508 1508 1506 1506 1505 1505 1506 1506 1506 1505 1505 1504 1503 1503 1502 1502 1502 1502 1502 1502 1501 1501 1501 1501 1501
1487 1488 1489 1491 1492 1493 1495 1496 1497 1498 1499 1500 1501 1502 1502 1503 1504 1504 1504 1505 1505 1502 1500 1500 1501 1501 1501 1501 1500 1499 1498 1498 1498 1497 1497 1497 1497 1497 1496 1496 1496 1496 1496
1482 1484 1485 1486 1487 1489 1490 1491 1492 1493 1494 1495 1496 1497 1498 1498 1499 1499 1500 1500 1500 1500 1497 1496 1496 1497 1496 1496 1496 1495 1494 1493 1493 1493 1492 1492 1492 1491 1491 1490 1491 1490 1490
1478 1479 1480 1481 1483 1484 1485 1486 1488 1489 1489 1491 1492 1492 1493 1494 1494 1494 1495 1495 1495 1495 1493 1491 1492 1492 1491 1491 1490 1490 1489 1488 1488 1487 1487 1486 1486 1486 1485 1485 1484 1484 1484
1474 1475 1476 1477 1478 1479 1480 1482 1483 1484 1485 1486 1486 1487 1488 1488 1489 1490 1490 1490 1490 1490 1489 1487 1486 1487 1487 1486 1485 1484 1484 1483 1483 1482 1482 1481 1480 1480 1480 1479 1479 1478 1478
1469 1470 1471 1472 1473 1474 1475 1477 1478 1479 1480 1481 1481 1482 1482 1483 1483 1484 1484 1485 1485 1485 1484 1483 1481 1482 1481 1481 1480 1479 1479 1478 1477 1477 1476 1475 1475 1474 1473 1473 1473 1472 1472
1464 1466 1467 1468 1469 1469 1471 1472 1473 1474 1475 1475 1476 1477 1477 1478 1478 1479 1479 1479 1479 1479 1479 1478 1477 1477 1476 1475 1475 1474 1473 1472 1472 1471 1470 1469 1469 1468 1467 1467 1466 1466 1465
1460 1461 1462 1463 1464 1465 1466 1467 1468 1469 1470 1470 1471 1472 1472 1472 1473 1473 1474 1474 1474 1474 1474 1473 1472 1472 1471 1470 1470 1469 1468 1467 1466 1466 1464 1463 1463 1462 1462 1461 1460 1459 1459
1455 1456 1457 1458 1459 1460 1461 1462 1464 1464 1465 1465 1466 1466 1467 1467 1467 1468 1468 1469 1470 1469 1469 1468 1467 1467 1466 1466 1465 1465 1463 1462 1460 1461 1459 1457 1458 1456 1455 1455 1454 1453 1452
1450 1451 1452 1453 1454 1455 1456 1458 1459 1460 1460 1460 1461 1461 1461 1462 1462 1462 1462 1463 1463 1463 1464 1464 1463 1462 1461 1461 1461 1460 1459 1457 1456 1455 1454 1451 1451 1450 1450 1449 1448 1447 1446
1446 1447 1447 1448 1449 1450 1452 1453 1454 1455 1455 1455 1456 1456 1456 1456 1457 1457 1457 1457 1457 1457 1458 1458 1457 1457 1457 1457 1456 1455 1454 1453 1452 1451 1450 1447 1445 1445 1444 1443 1442 1441 1441
1442 1442 1443 1444 1445 1446 1447 1448 1449 1450 1450 1450 1451 1451 1451 1451 1452 1453 1453 1452 1452 1452 1452 1452 1452 1452 1452 1452 1451 1451 1449 1448 1446 1446 1445 1443 1441 1439 1438 1437 1436 1436 1435
1438 1439 1439 1440 1441 1441 1443 1444 1445 1445 1445 1446 1446 1446 1447 1447 1447 1448 1448 1447 1447 1447 1447 1446 1446 1446 1446 1446 1446 1446 1445 1444 1442 1440 1440 1439 1437 1435 1432 1431 1431 1430 1428